Flag for U.S.A. Weather past 2 weeks in Chula Vista, California, U.S.A.

Now
49 °F

Clear.


Feels Like: 47 °F
Forecast: 50 / 70 °F
Wind: 5 mph from East

Location: Brown Field Municipal Airport

Current Time: Feb 1, 2015 at 4:17:48 AM

Latest Report: Feb 1, 2015 at 3:53 AM


Visibility: 10 mi

Pressure: 30.02 "Hg

Humidity: 93%

Dew point: 47 °F

Location of Chula VistaLocation

Historic Weather in Chula Vista — Graph

°F

Chula Vista temperature yesterday

Maximum temperature yesterday: 65 °F (at 12:53 PM)
Minimum temperature yesterday: 50 °F (at 2:53 AM)
Average temperature yesterday: 57 °F

Past Weeks' High & Low Weather Summary

 TemperatureHumidityPressure
High77 °F (Jan 25, 12:53 PM)100% (Jan 20, 2:53 AM)30.23 "Hg (Jan 20, 2:53 AM)
Low45 °F (Jan 24, 1:53 AM)7% (Jan 23, 11:53 AM)29.83 "Hg (Jan 31, 3:53 AM)
Average60 °F57%30.05 "Hg
* Reported Jan 17 2:53 AM — Feb 1 2:53 AM, Chula Vista, Weather by CustomWeather, © 2014

Note: Actual official high and low records may vary slightly from our data, if they occured in-between our weather recording intervals... More about our weather records

Advertising

Chula Vista weather history for previous 24 hours

 ConditionsComfort  
Time TempWeatherWind HumidityBarometerVisibility
2:53 AM
Feb 1
51 °FClear.No wind89%30.02 "Hg10 mi
1:53 AM52 °FClear.5 mph89%30.01 "Hg8 mi
12:53 AM53 °FFog.9 mph89%29.99 "Hg6 mi
11:53 PM
Jan 31
51 °FClear.5 mph89%30.00 "Hg10 mi
10:53 PM52 °FClear.No wind89%29.98 "Hg10 mi
9:53 PM55 °FClear.No wind80%29.97 "Hg10 mi
8:53 PM56 °FClear.No wind81%29.97 "Hg10 mi
7:53 PM59 °FOvercast.No wind78%29.95 "Hg10 mi
6:53 PM59 °FOvercast.No wind78%29.94 "Hg10 mi
5:53 PM60 °FOvercast.No wind75%29.92 "Hg10 mi
4:53 PM60 °FBroken clouds.8 mph72%29.90 "Hg10 mi
3:53 PM62 °FBroken clouds.8 mph70%29.88 "Hg10 mi
2:53 PM64 °FSunny.12 mph65%29.86 "Hg10 mi
1:53 PM65 °FPassing clouds.10 mph63%29.85 "Hg10 mi
12:53 PM65 °FPassing clouds.8 mph63%29.87 "Hg10 mi
11:53 AM64 °FBroken clouds.6 mph63%29.88 "Hg10 mi
10:53 AM60 °FPartly sunny.No wind75%29.91 "Hg8 mi
9:53 AM60 °FOvercast.No wind75%29.92 "Hg6 mi
8:53 AM55 °FOvercast.No wind83%29.90 "Hg10 mi
7:53 AM54 °FMostly cloudy.5 mph86%29.88 "Hg7 mi
7:02 AM53 °FFog.3 mph93%29.88 "Hg6 mi
6:53 AM54 °FFog.3 mph93%29.87 "Hg6 mi
5:53 AM51 °FPassing clouds.3 mph89%29.84 "Hg8 mi
4:53 AM50 °FPassing clouds.6 mph93%29.83 "Hg10 mi
Weather by CustomWeather, © 2014

See weather overviewHow to use our weather pages